#timestamp,LO_Frequency,Hit 
1503129615.7,286047001.7,N
1503129635.6,286047002.8,N
1503129655.4,286047001.5,N
1503129675.2,286047002.7,N
1503129695.0,286047001.8,N
1503129696.0,286047001.8,N
1503129715.8,286047004.9,N
1503129735.6,286047001.7,N
1503129755.4,286046998.1,N
1503129775.3,286046998.4,N
1503129795.1,286046999.8,N
1503129815.8,286047000.4,N
1503129835.7,286047001.8,N
1503129855.5,286047004.2,N
1503129875.3,286047002.7,N
1503129895.2,286047003.6,N
1503129915.9,286047003.6,N
1503129935.7,286047002.7,N
1503129955.6,286047003.9,N
1503129975.4,286047002.3,N
1503129995.2,286047001.0,N
1503130015.1,286047000.1,N
1503130016.0,286047000.1,N
1503130035.8,286047000.5,N
1503130055.6,286047000.2,N
1503130075.5,286047004.2,N
1503130095.3,286047002.2,N
1503130115.1,286047007.5,P
1503130135.9,286047002.8,N
1503130155.7,286046999.4,N
1503130175.5,286046999.3,N
1503130195.4,286046996.9,N
1503130215.2,286046996.5,N
1503130235.0,286047001.3,N
1503130235.9,286047001.3,N
1503130255.8,286047003.8,N
1503130275.6,286047004.1,N
1503130295.4,286047002.5,N
1503130315.2,286046999.5,N
1503130335.1,286046997.2,N
1503130336.0,286046997.2,N
1503130355.8,286046996.3,N
1503130375.6,286046992.3,N
1503130395.5,286046994.0,N
1503130415.3,286046994.9,N
1503130435.1,286046998.9,N
1503130455.9,286046995.6,N
1503130475.7,286046993.3,N
1503130495.5,286046997.0,N
1503130515.4,286046993.3,N
1503130535.2,286046994.4,N
1503130555.0,286046997.1,N
1503130555.9,286046997.1,N
1503130575.8,286046999.0,N
1503130595.6,286046999.2,N
1503130615.4,286046996.2,N
1503130635.3,286046995.1,N
1503130655.1,286046998.9,N
1503130656.0,286046998.9,N
1503130675.8,286047002.6,N
1503130695.6,286047001.6,N
1503130715.5,286047002.5,N
1503130735.3,286047002.2,N
1503130755.2,286047002.0,N
1503130775.9,286047001.7,N
1503130795.7,286047001.0,N
1503130815.6,286047000.7,N
1503130835.4,286046999.3,N
1503130855.2,286046998.4,N
1503130875.0,286047002.0,N
1503130875.9,286047002.0,N
1503130895.8,286047005.1,N
1503130915.6,286047008.5,N
1503130935.4,286047008.7,N
1503130955.3,286047008.4,N
1503130975.1,286047007.8,N
1503130995.8,286047008.7,N
1503131015.7,286047004.5,N
1503131035.5,286047004.7,N
1503131055.3,286047007.3,N
1503131075.2,286047002.9,N
1503131095.9,286046999.8,N
1503131115.7,286046999.4,N
1503131135.6,286046999.5,N
1503131155.4,286047001.3,N
1503131175.2,286047004.9,N
1503131195.0,286047008.4,N
1503131196.0,286047008.4,N
1503131215.8,286047006.8,N
1503131235.6,286047010.4,P
1503131255.5,286047005.5,N
1503131275.3,286047005.2,N
1503131295.1,286047004.4,N
1503131315.8,286047002.0,N
1503131335.7,286047006.0,N
1503131355.5,286047002.8,N
1503131375.3,286047001.5,N
1503131395.2,286047003.3,N
1503131415.9,286047000.2,N
1503131435.7,286047002.3,N
1503131455.6,286047001.5,N
1503131475.4,286047002.5,N
1503131495.2,286046998.6,N
1503131515.1,286046999.4,N
1503131516.0,286046999.4,N
1503131535.8,286046998.5,N
1503131555.6,286047000.7,N
1503131575.5,286047001.3,N
1503131595.3,286047005.6,N
1503131615.1,286047005.9,N
1503131635.8,286047005.1,N
1503131655.7,286047005.6,N
1503131675.5,286047003.2,N
1503131695.3,286047002.6,N
1503131715.2,286047004.2,N
1503131735.9,286047005.4,N
1503131755.7,286047004.5,N
1503131775.6,286047005.2,N
1503131795.4,286047003.6,N
1503131815.2,286047002.4,N
1503131835.1,286047002.8,N
1503131836.0,286047002.8,N
1503131855.8,286047001.6,N
1503131875.6,286046999.7,N
1503131895.4,286047004.3,N
1503131915.3,286047002.4,N
1503131935.3,286047000.8,N
1503131955.1,286047002.1,N
1503131956.0,286047002.1,N
1503131975.8,286047003.1,N
1503131995.7,286047007.7,P
1503132015.5,286047005.6,N
1503132035.3,286047001.3,N
1503132055.2,286047002.6,N
1503132075.9,286047002.6,N
1503132095.7,286047001.5,N
1503132115.6,286046998.1,N
1503132135.4,286047000.9,N
1503132155.2,286046999.9,N
1503132175.0,286047000.8,N
1503132175.9,286047000.8,N
1503132195.8,286047002.7,N
1503132215.6,286047001.8,N
1503132235.4,286047005.9,N
1503132255.3,286047001.9,N
1503132275.1,286046999.9,N
1503132295.8,286047000.1,N
1503132315.7,286047002.3,N
1503132335.5,286047002.4,N
1503132355.3,286047003.2,N
1503132375.2,286047005.8,N
1503132395.9,286047003.9,N
1503132415.7,286047002.4,N
1503132435.6,286046997.0,N
1503132455.4,286046997.4,N
1503132475.2,286046997.9,N
1503132495.0,286046996.8,N
1503132496.0,286046996.8,N
1503132515.8,286046999.6,N
1503132535.6,286046997.7,N
1503132555.4,286046995.0,N
1503132575.3,286046999.5,N
1503132595.1,286047000.7,N
1503132615.8,286047000.7,N
1503132635.7,286046998.3,N
1503132655.5,286046995.8,N
1503132675.3,286046996.1,N
1503132695.2,286046993.6,N
1503132715.9,286046994.3,N
1503132735.7,286046990.7,N
1503132755.6,286046993.5,N
1503132775.4,286046996.4,N
1503132795.2,286046995.5,N
1503132815.1,286046996.7,N
1503132816.0,286046996.7,N
1503132835.8,286046996.7,N
1503132855.6,286046996.5,N
1503132875.5,286046998.1,N
1503132895.3,286046998.3,N
1503132915.1,286046999.1,N
1503132935.9,286046998.9,N
1503132955.7,286047001.9,N
1503132975.5,286047000.7,N
1503132995.3,286046995.5,N
1503133015.2,286046992.3,P
1503133035.0,286046996.5,N
1503133035.9,286046996.5,N
1503133055.8,286047000.6,N
1503133075.6,286047000.8,N
1503133095.4,286046999.2,N
1503133115.2,286046996.9,N
1503133135.1,286046998.9,N
1503133136.0,286046998.9,N
1503133155.8,286046998.7,N
1503133175.6,286046996.6,N
1503133195.5,286047000.9,N
